FW9917 Weather Reports


Display with metric or nautical units.
time (UTC)temp
F
wind
direction
speed
MPH
gust
MPH
rain 1hr
in
rain 24hr
in
rain mn
in
humidity
%
barometer
mb
20260831191607 72 13 1.0 5.0 0.00 0.00 0.00 38 1020.2
20260831191057 72 15 0.0 4.0 0.00 0.00 0.00 36 1020.3
20260831190559 71 15 1.0 3.0 0.00 0.00 0.00 35 1020.4
20260831190104 71 15 1.0 3.0 0.00 0.00 0.00 35 1020.4
20260831185557 71 14 0.0 3.0 0.00 0.00 0.00 34 1020.5
20260831185057 71 0 1.0 3.0 0.00 0.00 0.00 31 1020.5
20260831184605 70 12 1.0 2.0 0.00 0.00 0.00 33 1020.4
20260831184056 70 0 0.0 3.0 0.00 0.00 0.00 36 1020.4
20260831183556 70 15 0.0 3.0 0.00 0.00 0.00 38 1020.5
20260831183107 70 15 1.0 3.0 0.00 0.00 0.00 35 1020.4
20260831182557 69 15 1.0 3.0 0.00 0.00 0.00 34 1020.4
20260831182057 69 0 0.0 4.0 0.00 0.00 0.00 36 1020.4
20260831181614 68 0 0.0 4.0 0.00 0.00 0.00 43 1020.5
20260831181058 68 15 1.0 4.0 0.00 0.00 0.00 44 1020.4
20260831180557 67 15 1.0 4.0 0.00 0.00 0.00 52 1020.4
20260831180110 67 15 0.0 4.0 0.00 0.00 0.00 56 1020.4
20260831175557 67 14 0.0 3.0 0.00 0.00 0.00 51 1020.3
20260831175057 66 15 1.0 4.0 0.00 0.00 0.00 58 1020.4
20260831174602 66 0 1.0 4.0 0.00 0.00 0.00 58 1020.4
20260831174057 65 0 0.0 3.0 0.00 0.00 0.00 54 1020.4
20260831173558 65 0 0.0 3.0 0.00 0.00 0.00 55 1020.3
20260831173106 64 13 0.0 3.0 0.00 0.00 0.00 65 1020.4
20260831172557 64 15 0.0 3.0 0.00 0.00 0.00 68 1020.3
20260831172057 63 0 1.0 3.0 0.00 0.00 0.00 68 1020.4
20260831171607 63 15 0.0 2.0 0.00 0.00 0.00 70 1020.4
20260831171057 63 0 0.0 3.0 0.00 0.00 0.00 69 1020.3
20260831170557 63 15 0.0 3.0 0.00 0.00 0.00 69 1020.3
20260831170118 62 0 0.0 3.0 0.00 0.00 0.00 71 1020.2
20260831165554 62 15 0.0 3.0 0.00 0.00 0.00 70 1020.2
20260831165055 61 14 0.0 2.0 0.00 0.00 0.00 72 1020.3
20260831164614 61 0 0.0 2.0 0.00 0.00 0.00 72 1020.2
20260831164054 61 15 0.0 2.0 0.00 0.00 0.00 74 1020.3
20260831163554 60 0 0.0 2.0 0.00 0.00 0.00 75 1020.3
20260831163102 59 15 0.0 3.0 0.00 0.00 0.00 76 1020.3
20260831162555 59 15 0.0 3.0 0.00 0.00 0.00 76 1020.4
20260831162055 58 15 0.0 2.0 0.00 0.00 0.00 76 1020.4
20260831161612 58 0 0.0 2.0 0.00 0.00 0.00 78 1020.4
20260831161054 57 0 0.0 2.0 0.00 0.00 0.00 79 1020.4
20260831160555 56 0 0.0 1.0 0.00 0.00 0.00 81 1020.4
20260831160111 55 0 0.0 0.0 0.00 0.00 0.00 84 1020.5
20260831155555 54 0 0.0 0.0 0.00 0.00 0.00 84 1020.5
20260831155056 54 0 0.0 0.0 0.00 0.00 0.00 86 1020.4
20260831154632 54 0 0.0 0.0 0.00 0.00 0.00 87 1020.5
20260831154056 53 0 0.0 0.0 0.00 0.00 0.00 87 1020.5
20260831153556 53 0 0.0 0.0 0.00 0.00 0.00 87 1020.6
20260831153113 52 0 0.0 0.0 0.00 0.00 0.00 87 1020.6
20260831152555 52 0 0.0 0.0 0.00 0.00 0.00 87 1020.6
20260831152056 51 0 0.0 1.0 0.00 0.00 0.00 85 1020.7
20260831151610 51 0 0.0 1.0 0.00 0.00 0.00 80 1020.7
20260831151055 50 0 0.0 1.0 0.00 0.00 0.00 80 1020.6
20260831150558 49 0 0.0 1.0 0.00 0.00 0.00 81 1020.7
20260831150110 49 0 0.0 1.0 0.00 0.00 0.00 80 1020.7
20260831145555 49 0 0.0 1.0 0.00 0.00 0.00 81 1020.7
20260831145055 48 0 0.0 1.0 0.00 0.00 0.00 79 1020.6
20260831144607 48 10 0.0 1.0 0.00 0.00 0.00 80 1020.6
20260831144055 48 0 0.0 1.0 0.00 0.00 0.00 78 1020.5
20260831143555 48 0 0.0 1.0 0.00 0.00 0.00 78 1020.5
20260831143112 48 0 0.0 1.0 0.00 0.00 0.00 75 1020.4
20260831142555 48 0 0.0 2.0 0.00 0.00 0.00 77 1020.4
20260831142054 48 0 0.0 2.0 0.00 0.00 0.00 75 1020.4
20260831141607 48 0 0.0 1.0 0.00 0.00 0.00 75 1020.4
20260831141055 48 0 0.0 2.0 0.00 0.00 0.00 74 1020.4
20260831140555 48 0 0.0 2.0 0.00 0.00 0.00 74 1020.3
20260831140105 48 0 0.0 2.0 0.00 0.00 0.00 74 1020.3
20260831135557 48 10 0.0 2.0 0.00 0.00 0.00 73 1020.3
20260831135057 48 0 0.0 2.0 0.00 0.00 0.00 74 1020.2
20260831134607 48 0 0.0 2.0 0.00 0.00 0.00 73 1020.2
20260831134057 48 10 0.0 2.0 0.00 0.00 0.00 74 1020.2
20260831133557 48 0 0.0 2.0 0.00 0.00 0.00 73 1020.1
20260831133106 48 0 0.0 2.0 0.00 0.00 0.00 72 1020.1
20260831132558 48 0 0.0 2.0 0.00 0.00 0.00 71 1020.1
20260831132057 48 0 0.0 2.0 0.00 0.00 0.00 71 1020.1
20260831131604 48 10 0.0 2.0 0.00 0.00 0.00 71 1020.1
20260831131056 47 0 0.0 2.0 0.00 0.00 0.00 71 1020.1
20260831130557 47 0 0.0 2.0 0.00 0.00 0.00 69 1020.1
20260831130111 47 0 0.0 2.0 0.00 0.00 0.00 70 1020.2
20260831125557 47 0 0.0 2.0 0.00 0.00 0.00 70 1020.2
20260831125057 47 0 0.0 2.0 0.00 0.00 0.00 71 1020.3
20260831124605 47 0 0.0 2.0 0.00 0.00 0.00 71 1020.2
20260831124056 47 0 0.0 0.0 0.00 0.00 0.00 71 1020.3
20260831123557 48 0 0.0 1.0 0.00 0.00 0.00 72 1020.1
20260831123106 48 0 0.0 1.0 0.00 0.00 0.00 71 1020.2
20260831122557 48 0 0.0 1.0 0.00 0.00 0.00 72 1020.2
20260831122057 48 0 0.0 2.0 0.00 0.00 0.00 72 1020.2
20260831121605 48 0 0.0 2.0 0.00 0.00 0.00 71 1020.2
20260831121056 49 10 0.0 2.0 0.00 0.00 0.00 72 1020.1
20260831120558 49 0 0.0 1.0 0.00 0.00 0.00 68 1020.1
20260831120117 49 10 0.0 1.0 0.00 0.00 0.00 68 1020.1
20260831115557 49 0 0.0 2.0 0.00 0.00 0.00 67 1020.1
20260831115057 49 0 0.0 2.0 0.00 0.00 0.00 67 1020.2
20260831114613 49 0 0.0 2.0 0.00 0.00 0.00 68 1020.3
20260831114100 49 0 0.0 2.0 0.00 0.00 0.00 68 1020.4
20260831113557 49 0 0.0 2.0 0.00 0.00 0.00 68 1020.2
20260831113108 48 0 0.0 2.0 0.00 0.00 0.00 66 1020.3
20260831112558 48 10 0.0 2.0 0.00 0.00 0.00 68 1020.5
20260831112057 48 10 0.0 2.0 0.00 0.00 0.00 68 1020.4
20260831111607 48 0 0.0 2.0 0.00 0.00 0.00 68 1020.4
20260831111057 48 0 0.0 2.0 0.00 0.00 0.00 68 1020.4
20260831110557 48 10 0.0 2.0 0.00 0.00 0.00 68 1020.4
20260831110107 49 0 0.0 1.0 0.00 0.00 0.00 68 1020.5
20260831105556 49 10 0.0 1.0 0.00 0.00 0.00 68 1020.5
20260831105055 49 0 0.0 1.0 0.00 0.00 0.00 68 1020.6
20260831104606 49 10 0.0 1.0 0.00 0.00 0.00 72 1020.6
20260831104055 49 0 0.0 2.0 0.00 0.00 0.00 69 1020.5
20260831103554 49 0 0.0 2.0 0.00 0.00 0.00 65 1020.5
20260831103102 49 0 0.0 2.0 0.00 0.00 0.00 66 1020.6
20260831102555 49 0 0.0 2.0 0.00 0.00 0.00 66 1020.6
20260831102054 49 0 0.0 2.0 0.00 0.00 0.00 66 1020.6
20260831101604 49 10 0.0 2.0 0.00 0.00 0.00 65 1020.5
20260831101055 49 10 0.0 2.0 0.00 0.00 0.00 65 1020.7
20260831100555 49 10 0.0 1.0 0.00 0.00 0.00 66 1020.7
20260831100122 49 10 0.0 2.0 0.00 0.00 0.00 66 1020.6
20260831095557 49 0 0.0 2.0 0.00 0.00 0.00 68 1020.7
20260831095055 49 10 0.0 2.0 0.00 0.00 0.00 68 1020.7
20260831094602 49 0 0.0 1.0 0.00 0.00 0.00 68 1020.7
20260831094055 49 0 0.0 1.0 0.00 0.00 0.00 68 1020.7
20260831093556 50 0 0.0 1.0 0.00 0.00 0.00 67 1020.6
20260831093130 50 0 0.0 1.0 0.00 0.00 0.00 67 1020.7
20260831092556 50 0 0.0 2.0 0.00 0.00 0.00 67 1020.7
20260831092056 50 0 0.0 2.0 0.00 0.00 0.00 67 1020.6
20260831091605 50 0 0.0 2.0 0.00 0.00 0.00 68 1020.7
20260831091056 50 0 0.0 2.0 0.00 0.00 0.00 69 1020.7
20260831090555 51 10 0.0 2.0 0.00 0.00 0.00 67 1020.8
20260831090138 51 0 0.0 2.0 0.00 0.00 0.00 65 1020.8
20260831085559 51 0 0.0 2.0 0.00 0.00 0.00 65 1020.9
20260831085058 51 10 0.0 2.0 0.00 0.00 0.00 65 1020.8
20260831084605 51 0 0.0 2.0 0.00 0.00 0.00 65 1020.9
20260831084059 51 0 0.0 2.0 0.00 0.00 0.00 65 1020.9
20260831083555 51 10 0.0 2.0 0.00 0.00 0.00 65 1021.0
20260831083112 51 10 0.0 2.0 0.00 0.00 0.00 65 1021.0
20260831082555 51 0 0.0 1.0 0.00 0.00 0.00 65 1021.1
20260831082055 51 0 0.0 2.0 0.00 0.00 0.00 66 1021.1
20260831081605 51 0 0.0 2.0 0.00 0.00 0.00 65 1021.1
20260831081055 52 0 0.0 2.0 0.00 0.00 0.00 64 1021.1
20260831080558 52 0 0.0 2.0 0.00 0.00 0.00 64 1021.1
20260831080130 52 0 0.0 2.0 0.00 0.00 0.00 65 1021.1
20260831075556 52 0 0.0 1.0 0.00 0.00 0.00 65 1021.3
20260831075055 52 0 0.0 1.0 0.00 0.00 0.00 65 1021.4
20260831074607 52 0 0.0 1.0 0.00 0.00 0.00 65 1021.3
20260831074057 52 0 0.0 1.0 0.00 0.00 0.00 65 1021.3
20260831073557 52 0 0.0 2.0 0.00 0.00 0.00 65 1021.3
20260831073103 52 10 0.0 2.0 0.00 0.00 0.00 64 1021.3
20260831072556 53 0 0.0 2.0 0.00 0.00 0.00 64 1021.3
20260831072057 53 0 0.0 2.0 0.00 0.00 0.00 66 1021.3
20260831071606 53 0 0.0 2.0 0.00 0.00 0.00 66 1021.1
20260831071057 53 0 0.0 2.0 0.00 0.00 0.00 67 1021.3
20260831070557 53 0 0.0 2.0 0.00 0.00 0.00 67 1021.1
20260831070106 53 0 0.0 2.0 0.00 0.00 0.00 67 1021.1
20260831065557 53 0 0.0 2.0 0.00 0.00 0.00 67 1021.2
20260831065056 53 0 0.0 2.0 0.00 0.00 0.00 67 1021.3
20260831064609 53 0 0.0 2.0 0.00 0.00 0.00 67 1021.2
20260831064056 54 0 0.0 2.0 0.00 0.00 0.00 67 1021.3
20260831063558 54 0 0.0 2.0 0.00 0.00 0.00 67 1021.3
20260831063114 54 0 0.0 2.0 0.00 0.00 0.00 67 1021.4
20260831062557 54 0 0.0 2.0 0.00 0.00 0.00 67 1021.4
20260831062058 54 0 0.0 2.0 0.00 0.00 0.00 67 1021.4
20260831061608 54 0 0.0 2.0 0.00 0.00 0.00 67 1021.4
20260831061057 54 0 0.0 2.0 0.00 0.00 0.00 67 1021.5
20260831060558 55 0 0.0 1.0 0.00 0.00 0.00 67 1021.5
20260831060125 55 0 0.0 2.0 0.00 0.00 0.00 67 1021.4
20260831055557 55 0 0.0 2.0 0.00 0.00 0.00 67 1021.4
20260831055057 55 10 0.0 2.0 0.00 0.00 0.00 67 1021.5
20260831054611 55 0 0.0 2.0 0.00 0.00 0.00 67 1021.5
20260831054057 55 0 0.0 2.0 0.00 0.00 0.00 67 1021.5
20260831053555 55 0 0.0 2.0 0.00 0.00 0.00 67 1021.5
20260831053134 55 0 0.0 2.0 0.00 0.00 0.00 67 1021.6
20260831052557 55 0 0.0 1.0 0.00 0.00 0.00 67 1021.6
20260831052056 55 0 0.0 1.0 0.00 0.00 0.00 66 1021.6
20260831051623 56 0 0.0 1.0 0.00 0.00 0.00 66 1021.6
20260831051057 56 0 0.0 1.0 0.00 0.00 0.00 66 1021.6
20260831050556 56 11 0.0 1.0 0.00 0.00 0.00 66 1021.7
20260831050117 56 0 0.0 0.0 0.00 0.00 0.00 65 1021.7
20260831045557 56 0 0.0 0.0 0.00 0.00 0.00 65 1021.7
20260831045057 56 0 0.0 0.0 0.00 0.00 0.00 65 1021.7
20260831044646 57 0 0.0 0.0 0.00 0.00 0.00 65 1021.7
20260831044058 57 0 0.0 0.0 0.00 0.00 0.00 65 1021.5
20260831043558 57 0 0.0 0.0 0.00 0.00 0.00 64 1021.7
20260831043105 57 0 0.0 0.0 0.00 0.00 0.00 63 1021.6
20260831042558 58 0 0.0 0.0 0.00 0.00 0.00 62 1021.7
20260831042057 58 0 0.0 0.0 0.00 0.00 0.00 62 1021.6
20260831041617 58 0 0.0 0.0 0.00 0.00 0.00 62 1021.5
20260831041058 58 0 0.0 0.0 0.00 0.00 0.00 61 1021.4
20260831040559 59 0 0.0 0.0 0.00 0.00 0.00 61 1021.5
20260831040108 59 0 0.0 0.0 0.00 0.00 0.00 60 1021.4
20260831035557 59 0 0.0 0.0 0.00 0.00 0.00 59 1021.4
20260831035058 60 0 0.0 0.0 0.00 0.00 0.00 58 1021.3
20260831034610 60 0 0.0 0.0 0.00 0.00 0.00 58 1021.3
20260831034057 60 0 0.0 0.0 0.00 0.00 0.00 58 1021.3
20260831033557 61 0 0.0 0.0 0.00 0.00 0.00 57 1021.3
20260831033112 61 0 0.0 0.0 0.00 0.00 0.00 57 1021.1
20260831032558 62 0 0.0 0.0 0.00 0.00 0.00 56 1021.1
20260831032057 62 0 0.0 1.0 0.00 0.00 0.00 56 1021.1
20260831031604 63 0 0.0 1.0 0.00 0.00 0.00 56 1021.1
20260831031058 63 9 0.0 1.0 0.00 0.00 0.00 56 1021.0
20260831030557 64 0 0.0 1.0 0.00 0.00 0.00 56 1021.0
20260831030107 64 0 0.0 0.0 0.00 0.00 0.00 55 1021.1
20260831025602 65 0 0.0 0.0 0.00 0.00 0.00 54 1021.0
20260831025058 65 0 0.0 0.0 0.00 0.00 0.00 54 1020.9
20260831024606 66 0 0.0 1.0 0.00 0.00 0.00 53 1020.9
20260831024059 66 0 0.0 1.0 0.00 0.00 0.00 51 1020.7
20260831023557 67 0 0.0 1.0 0.00 0.00 0.00 49 1020.7
20260831023111 67 0 0.0 1.0 0.00 0.00 0.00 50 1020.7
20260831022558 68 0 0.0 2.0 0.00 0.00 0.00 49 1020.7
20260831022100 68 0 0.0 2.0 0.00 0.00 0.00 51 1020.6
20260831021611 68 0 0.0 3.0 0.00 0.00 0.00 47 1020.6
20260831021101 68 360 0.0 3.0 0.00 0.00 0.00 49 1020.6
20260831020558 68 16 0.0 5.0 0.00 0.00 0.00 47 1020.5
20260831020132 69 0 1.0 5.0 0.00 0.00 0.00 46 1020.5
20260831015556 69 15 1.0 3.0 0.00 0.00 0.00 46 1020.5
20260831015057 69 0 0.0 5.0 0.00 0.00 0.00 46 1020.6
20260831014626 70 15 0.0 5.0 0.00 0.00 0.00 44 1020.5
20260831014057 70 15 1.0 4.0 0.00 0.00 0.00 45 1020.5
20260831013557 70 0 0.0 5.0 0.00 0.00 0.00 44 1020.5
20260831013107 71 0 0.0 5.0 0.00 0.00 0.00 45 1020.4
20260831012556 71 0 1.0 5.0 0.00 0.00 0.00 45 1020.5
20260831012056 71 0 0.0 4.0 0.00 0.00 0.00 46 1020.4
20260831011603 71 0 0.0 3.0 0.00 0.00 0.00 47 1020.5
20260831011055 71 0 0.0 3.0 0.00 0.00 0.00 45 1020.5
20260831010555 72 15 1.0 5.0 0.00 0.00 0.00 42 1020.6
20260831010119 72 15 0.0 5.0 0.00 0.00 0.00 44 1020.5
20260831005556 72 0 1.0 4.0 0.00 0.00 0.00 41 1020.5
20260831005056 73 13 1.0 6.0 0.00 0.00 0.00 38 1020.5
20260831004614 74 0 1.0 7.0 0.00 0.00 0.00 40 1020.4
20260831004056 75 14 1.0 7.0 0.00 0.00 0.00 37 1020.4
20260831003558 75 15 1.0 5.0 0.00 0.00 0.00 38 1020.4
20260831003114 75 13 1.0 4.0 0.00 0.00 0.00 41 1020.4
20260831002555 75 14 1.0 4.0 0.00 0.00 0.00 40 1020.5
20260831002055 75 15 1.0 4.0 0.00 0.00 0.00 37 1020.5
20260831001606 75 15 1.0 4.0 0.00 0.00 0.00 37 1020.5
20260831001055 75 16 1.0 4.0 0.00 0.00 0.00 36 1020.5
20260831000556 76 14 1.0 3.0 0.00 0.00 0.00 34 1020.5
20260831000111 76 14 1.0 4.0 0.00 0.00 0.00 36 1020.5
20260830235556 75 14 1.0 4.0 0.00 0.00 0.00 34 1020.5
20260830235055 76 15 1.0 5.0 0.00 0.00 0.00 33 1020.5
20260830234628 76 15 1.0 5.0 0.00 0.00 0.00 32 1020.5
20260830234055 76 13 1.0 4.0 0.00 0.00 0.00 33 1020.5
20260830233555 76 14 1.0 3.0 0.00 0.00 0.00 34 1020.4
20260830233107 76 15 1.0 4.0 0.00 0.00 0.00 33 1020.5
20260830232555 75 15 1.0 7.0 0.00 0.00 0.00 31 1020.5
20260830232056 76 15 1.0 7.0 0.00 0.00 0.00 34 1020.5
20260830231612 76 14 1.0 4.0 0.00 0.00 0.00 30 1020.5
20260830231055 77 14 1.0 4.0 0.00 0.00 0.00 30 1020.6
20260830230555 76 15 1.0 5.0 0.00 0.00 0.00 32 1020.6
20260830230104 76 15 1.0 8.0 0.00 0.00 0.00 32 1020.7
20260830225555 76 13 1.0 8.0 0.00 0.00 0.00 31 1020.7
20260830225055 76 13 2.0 8.0 0.00 0.00 0.00 29 1020.8
20260830224604 76 15 1.0 5.0 0.00 0.00 0.00 31 1020.8
20260830224056 76 15 2.0 5.0 0.00 0.00 0.00 30 1020.9
20260830223555 77 16 2.0 5.0 0.00 0.00 0.00 30 1020.9
20260830223104 76 14 0.0 7.0 0.00 0.00 0.00 33 1021.0
20260830222555 76 14 1.0 7.0 0.00 0.00 0.00 33 1021.0
20260830222055 76 14 1.0 7.0 0.00 0.00 0.00 30 1021.1
20260830221609 77 15 1.0 5.0 0.00 0.00 0.00 29 1021.3
20260830221057 76 14 1.0 5.0 0.00 0.00 0.00 33 1021.3
20260830220557 76 15 1.0 5.0 0.00 0.00 0.00 31 1021.4
20260830220113 75 15 1.0 5.0 0.00 0.00 0.00 29 1021.5
20260830215558 76 15 1.0 4.0 0.00 0.00 0.00 30 1021.5
20260830215058 76 15 1.0 5.0 0.00 0.00 0.00 30 1021.5
20260830214607 75 15 1.0 5.0 0.00 0.00 0.00 33 1021.6
20260830214057 76 14 1.0 4.0 0.00 0.00 0.00 27 1021.6
20260830213557 76 15 1.0 4.0 0.00 0.00 0.00 28 1021.7
20260830213115 77 14 1.0 4.0 0.00 0.00 0.00 29 1021.7
20260830212557 77 13 1.0 4.0 0.00 0.00 0.00 28 1021.8
20260830212058 78 14 1.0 3.0 0.00 0.00 0.00 30 1021.8
20260830211609 78 14 0.0 2.0 0.00 0.00 0.00 30 1021.9
20260830211057 77 15 0.0 3.0 0.00 0.00 0.00 30 1021.9
20260830210558 76 15 0.0 3.0 0.00 0.00 0.00 29 1021.8
20260830210105 77 0 1.0 3.0 0.00 0.00 0.00 27 1021.9
20260830205601 77 0 0.0 3.0 0.00 0.00 0.00 29 1021.9
20260830205058 76 13 0.0 3.0 0.00 0.00 0.00 27 1022.0
20260830204604 76 15 1.0 3.0 0.00 0.00 0.00 27 1021.9
20260830204057 76 13 0.0 3.0 0.00 0.00 0.00 26 1021.9
20260830203557 75 14 1.0 3.0 0.00 0.00 0.00 27 1021.9
20260830203106 75 13 1.0 3.0 0.00 0.00 0.00 26 1022.0
20260830202559 75 15 1.0 3.0 0.00 0.00 0.00 28 1022.0
20260830202058 74 15 1.0 4.0 0.00 0.00 0.00 24 1022.1
20260830201609 74 12 1.0 4.0 0.00 0.00 0.00 25 1022.0
20260830201058 74 15 0.0 4.0 0.00 0.00 0.00 26 1022.0
20260830200557 74 13 1.0 3.0 0.00 0.00 0.00 25 1021.9
20260830200107 74 13 0.0 4.0 0.00 0.00 0.00 28 1021.9
20260830195557 73 15 1.0 4.0 0.00 0.00 0.00 25 1022.0
20260830195101 73 12 1.0 4.0 0.00 0.00 0.00 27 1022.1
20260830194609 73 0 1.0 3.0 0.00 0.00 0.00 27 1022.0
20260830194057 73 0 0.0 3.0 0.00 0.00 0.00 27 1022.1
20260830193558 72 15 1.0 4.0 0.00 0.00 0.00 26 1022.0
20260830193106 71 0 1.0 4.0 0.00 0.00 0.00 30 1022.1
20260830192557 70 15 1.0 4.0 0.00 0.00 0.00 26 1022.2
20260830192057 70 14 1.0 5.0 0.00 0.00 0.00 27 1022.2